Time,TemperatureF,DewpointF,PressureIn,WindDirection,WindDirectionDegrees,WindSpeedMPH,WindSpeedGustMPH,Humidity,HourlyPrecipIn,Conditions,Clouds,dailyrainin,SolarRadiationWatts/m^2,SoftwareType,DateUTC
2013-03-10 00:00:00,35.3,6.9,29.93,ESE,121,0.0,-999.0,21,-99.99,,,0.13,0.0,cwc,2013-03-10 07:00:00,
2013-03-10 00:05:00,34.9,5.0,29.97,ESE,121,0.0,-999.0,17,-99.99,,,0.00,0.0,cwc,2013-03-10 07:05:00,
2013-03-10 00:10:00,34.4,3.1,29.97,ESE,121,0.0,-999.0,13,-99.99,,,0.00,0.0,cwc,2013-03-10 07:10:00,
2013-03-10 00:15:00,35.0,6.2,29.97,ESE,121,0.0,-999.0,20,-99.99,,,0.00,0.0,cwc,2013-03-10 07:15:00,
2013-03-10 00:20:00,37.6,13.5,29.97,ESE,121,0.0,-999.0,33,-99.99,,,0.00,0.0,cwc,2013-03-10 07:20:00,
2013-03-10 00:25:00,36.8,7.3,29.97,ESE,121,0.0,-999.0,18,-99.99,,,0.00,0.0,cwc,2013-03-10 07:25:00,
2013-03-10 00:30:00,35.9,7.1,29.97,ESE,121,0.0,-999.0,20,-99.99,,,0.00,0.0,cwc,2013-03-10 07:30:00,
2013-03-10 00:35:00,35.5,4.9,29.97,ESE,121,0.0,-999.0,15,-99.99,,,0.00,0.0,cwc,2013-03-10 07:35:00,
2013-03-10 00:40:00,34.7,4.1,29.97,ESE,121,0.0,-999.0,15,-99.99,,,0.00,0.0,cwc,2013-03-10 07:40:00,
2013-03-10 00:50:00,34.0,3.4,30.00,ESE,121,0.0,-999.0,15,-99.99,,,0.00,0.0,cwc,2013-03-10 07:50:00,
2013-03-10 00:55:00,33.5,2.9,30.00,ESE,121,0.0,-999.0,15,-99.99,,,0.00,0.0,cwc,2013-03-10 07:55:00,
2013-03-10 01:00:00,33.4,2.8,30.00,ESE,121,0.0,-999.0,15,-99.99,,,0.00,0.0,cwc,2013-03-10 08:00:00,
2013-03-10 01:05:00,33.2,2.6,30.00,ESE,121,0.0,-999.0,15,-99.99,,,0.00,0.0,cwc,2013-03-10 08:05:00,
2013-03-10 01:10:00,32.9,2.7,30.00,ESE,121,0.0,-999.0,16,-99.99,,,0.00,0.0,cwc,2013-03-10 08:10:00,
2013-03-10 01:15:00,32.8,2.6,30.00,NE,35,7.0,-999.0,16,-99.99,,,0.00,0.0,cwc,2013-03-10 08:15:00,
2013-03-10 01:20:00,32.4,32.4,29.96,NE,37,6.0,-999.0,100,-99.99,,,0.00,0.0,cwc,2013-03-10 08:20:00,
2013-03-10 01:25:00,32.4,32.4,29.96,NE,38,4.0,-999.0,100,-99.99,,,0.00,0.0,cwc,2013-03-10 08:25:00,
2013-03-10 01:30:00,32.2,32.2,29.96,NE,38,2.0,-999.0,100,-99.99,,,0.00,0.0,cwc,2013-03-10 08:30:00,
2013-03-10 01:35:00,32.1,32.1,29.99,NE,38,2.0,-999.0,100,-99.99,,,0.00,0.0,cwc,2013-03-10 08:35:00,
2013-03-10 01:40:00,31.9,31.9,29.99,NE,38,0.0,-999.0,100,-99.99,,,0.00,0.0,cwc,2013-03-10 08:40:00,
2013-03-10 01:45:00,31.8,31.8,29.99,NE,38,0.0,-999.0,100,-99.99,,,0.00,0.0,cwc,2013-03-10 08:45:00,
2013-03-10 01:50:00,32.1,32.1,30.00,NE,38,0.0,-999.0,100,-99.99,,,0.00,0.0,cwc,2013-03-10 08:50:00,
2013-03-10 01:55:00,34.6,34.6,30.00,NE,38,0.0,-999.0,100,-99.99,,,0.00,0.0,cwc,2013-03-10 08:55:00,
2013-03-10 03:00:00,37.6,37.6,30.00,NE,38,0.0,-999.0,100,-99.99,,,0.00,0.0,cwc,2013-03-10 09:00:00,
2013-03-10 03:05:00,36.5,36.5,29.93,NE,38,0.0,-999.0,100,-99.99,,,0.00,0.0,cwc,2013-03-10 09:05:00,
2013-03-10 03:10:00,35.9,-0.1,29.93,NE,38,0.0,-999.0,0,-99.99,,,0.00,0.0,cwc,2013-03-10 09:10:00,
2013-03-10 03:15:00,34.9,-1.1,29.93,NE,38,0.0,-999.0,0,-99.99,,,0.00,0.0,cwc,2013-03-10 09:15:00,
2013-03-10 03:20:00,32.9,0.5,29.99,NE,38,6.0,-999.0,10,-99.99,,,0.00,0.0,cwc,2013-03-10 09:20:00,
2013-03-10 03:25:00,32.1,25.6,29.99,North,10,10.0,-999.0,82,-99.99,,,0.00,0.0,cwc,2013-03-10 09:25:00,
2013-03-10 03:30:00,31.8,26.0,29.99,NNE,21,1.0,-999.0,84,-99.99,,,0.00,0.0,cwc,2013-03-10 09:30:00,
2013-03-10 03:35:00,31.6,24.8,29.98,NNE,21,2.0,-999.0,81,-99.99,,,0.00,0.0,cwc,2013-03-10 09:35:00,
2013-03-10 03:40:00,31.5,26.5,29.98,NNE,21,1.0,-999.0,86,-99.99,,,0.00,0.0,cwc,2013-03-10 09:40:00,
2013-03-10 03:45:00,31.2,30.1,29.98,NNE,21,2.0,-999.0,97,-99.99,,,0.00,0.0,cwc,2013-03-10 09:45:00,
2013-03-10 03:50:00,30.9,30.9,30.00,NE,37,6.0,-999.0,100,-99.99,,,0.00,0.0,cwc,2013-03-10 09:50:00,
2013-03-10 03:55:00,30.7,30.7,30.00,NNE,31,1.0,-999.0,100,-99.99,,,0.00,0.0,cwc,2013-03-10 09:55:00,
2013-03-10 04:00:00,30.7,-3.9,30.00,NNE,31,4.0,-999.0,4,-99.99,,,0.00,0.0,cwc,2013-03-10 10:00:00,
2013-03-10 04:05:00,30.7,-4.2,30.01,NNE,31,2.0,-999.0,3,-99.99,,,0.00,0.0,cwc,2013-03-10 10:05:00,
2013-03-10 04:10:00,30.6,-4.3,30.01,NNE,31,1.0,-999.0,3,-99.99,,,0.00,0.0,cwc,2013-03-10 10:10:00,
2013-03-10 04:15:00,30.6,-4.3,30.01,NNE,31,2.0,-999.0,3,-99.99,,,0.00,0.0,cwc,2013-03-10 10:15:00,
2013-03-10 04:20:00,30.6,-4.3,30.00,NNE,31,4.0,-999.0,3,-99.99,,,0.00,0.0,cwc,2013-03-10 10:20:00,
2013-03-10 04:25:00,30.6,-4.7,30.00,NNE,31,0.0,-999.0,2,-99.99,,,0.00,0.0,cwc,2013-03-10 10:25:00,
2013-03-10 04:30:00,30.6,-4.7,30.00,NNE,31,0.0,-999.0,2,-99.99,,,0.00,0.0,cwc,2013-03-10 10:30:00,
2013-03-10 04:35:00,30.6,-4.7,30.02,NNE,31,0.0,-999.0,2,-99.99,,,0.00,0.0,cwc,2013-03-10 10:35:00,
2013-03-10 04:40:00,31.2,-4.1,30.02,NNE,31,0.0,-999.0,2,-99.99,,,0.00,0.0,cwc,2013-03-10 10:40:00,
2013-03-10 04:45:00,36.3,2.1,30.02,NNE,31,0.0,-999.0,5,-99.99,,,0.00,0.0,cwc,2013-03-10 10:45:00,
2013-03-10 04:50:00,38.2,22.0,29.93,NNE,31,0.0,-999.0,55,-99.99,,,0.00,0.0,cwc,2013-03-10 10:50:00,
2013-03-10 04:55:00,35.5,16.4,29.93,NNE,31,0.0,-999.0,47,-99.99,,,0.00,0.0,cwc,2013-03-10 10:55:00,
2013-03-10 05:00:00,34.6,12.6,29.93,NNE,31,0.0,-999.0,39,-99.99,,,0.00,0.0,cwc,2013-03-10 11:00:00,
2013-03-10 05:05:00,35.0,8.7,30.00,NNE,31,0.0,-999.0,27,-99.99,,,0.00,0.0,cwc,2013-03-10 11:05:00,
2013-03-10 05:10:00,40.3,25.5,30.00,NNE,31,0.0,-999.0,59,-99.99,,,0.00,0.0,cwc,2013-03-10 11:10:00,
2013-03-10 05:15:00,37.0,19.7,30.00,NNE,31,0.0,-999.0,52,-99.99,,,0.00,0.0,cwc,2013-03-10 11:15:00,
2013-03-10 05:20:00,34.4,15.0,29.97,NNE,31,0.0,-999.0,46,-99.99,,,0.00,0.0,cwc,2013-03-10 11:20:00,
2013-03-10 05:25:00,32.2,4.8,29.97,NNE,31,4.0,-999.0,24,-99.99,,,0.00,0.0,cwc,2013-03-10 11:25:00,
2013-03-10 05:30:00,31.0,3.3,29.97,NNE,31,6.0,-999.0,23,-99.99,,,0.00,0.0,cwc,2013-03-10 11:30:00,
2013-03-10 05:35:00,30.6,2.5,30.03,NNE,14,4.0,-999.0,22,-99.99,,,0.00,0.0,cwc,2013-03-10 11:35:00,
2013-03-10 05:40:00,30.4,-5.6,30.03,NNE,21,7.0,-999.0,0,-99.99,,,0.00,0.0,cwc,2013-03-10 11:40:00,
2013-03-10 05:45:00,30.4,-5.6,30.03,NNE,18,6.0,-999.0,0,-99.99,,,0.00,0.0,cwc,2013-03-10 11:45:00,
2013-03-10 05:50:00,30.3,-5.7,30.06,NE,48,7.0,-999.0,0,-99.99,,,0.00,0.0,cwc,2013-03-10 11:50:00,
2013-03-10 05:55:00,30.1,-5.9,30.06,NE,51,6.0,-999.0,0,-99.99,,,0.00,0.0,cwc,2013-03-10 11:55:00,
2013-03-10 06:00:00,30.1,-5.9,30.06,NE,54,4.0,-999.0,0,-99.99,,,0.00,0.0,cwc,2013-03-10 12:00:00,
2013-03-10 06:05:00,30.0,-6.0,30.07,NE,48,7.0,-999.0,0,-99.99,,,0.00,0.0,cwc,2013-03-10 12:05:00,
2013-03-10 06:10:00,29.8,-6.2,30.07,NE,40,6.0,-999.0,0,-99.99,,,0.00,0.0,cwc,2013-03-10 12:10:00,
2013-03-10 06:15:00,29.7,-6.3,30.07,NNE,21,8.0,-999.0,0,-99.99,,,0.00,0.0,cwc,2013-03-10 12:15:00,
2013-03-10 06:20:00,29.5,-6.5,30.07,NNE,21,6.0,-999.0,0,-99.99,,,0.00,0.0,cwc,2013-03-10 12:20:00,
2013-03-10 06:25:00,29.5,-6.5,30.07,NNE,21,4.0,-999.0,0,-99.99,,,0.00,0.0,cwc,2013-03-10 12:25:00,
2013-03-10 06:30:00,29.4,17.2,30.07,NNE,21,2.0,-999.0,66,-99.99,,,0.00,0.0,cwc,2013-03-10 12:30:00,
2013-03-10 06:35:00,29.4,16.8,30.07,NNE,21,0.0,-999.0,65,-99.99,,,0.00,0.0,cwc,2013-03-10 12:35:00,
2013-03-10 06:40:00,29.4,16.8,30.07,NNE,21,2.0,-999.0,65,-99.99,,,0.00,0.0,cwc,2013-03-10 12:40:00,
2013-03-10 06:45:00,29.4,17.2,30.07,NNE,21,8.0,-999.0,66,-99.99,,,0.00,0.0,cwc,2013-03-10 12:45:00,
2013-03-10 06:50:00,29.4,18.2,30.08,North,11,6.0,-999.0,69,-99.99,,,0.00,0.0,cwc,2013-03-10 12:50:00,
2013-03-10 06:55:00,29.3,17.1,30.08,NE,52,10.0,-999.0,66,-99.99,,,0.00,0.0,cwc,2013-03-10 12:55:00,
2013-03-10 07:00:00,29.1,14.7,30.08,North,7,8.0,-999.0,60,-99.99,,,0.00,0.0,cwc,2013-03-10 13:00:00,
2013-03-10 07:05:00,29.0,13.9,30.09,North,1,7.0,-999.0,58,-99.99,,,0.00,0.0,cwc,2013-03-10 13:05:00,
2013-03-10 07:10:00,28.8,14.8,30.09,NNE,16,8.0,-999.0,61,-99.99,,,0.00,0.0,cwc,2013-03-10 13:10:00,
2013-03-10 07:15:00,28.5,13.4,30.09,North,0,4.0,-999.0,58,-99.99,,,0.00,0.0,cwc,2013-03-10 13:15:00,
2013-03-10 07:20:00,28.4,13.3,30.11,North,356,7.0,-999.0,58,-99.99,,,0.00,0.0,cwc,2013-03-10 13:20:00,
2013-03-10 07:25:00,28.2,13.8,30.11,North,0,4.0,-999.0,60,-99.99,,,0.00,0.0,cwc,2013-03-10 13:25:00,
2013-03-10 07:30:00,28.1,14.4,30.11,NNW,343,2.0,-999.0,62,-99.99,,,0.00,0.0,cwc,2013-03-10 13:30:00,
2013-03-10 07:35:00,28.1,14.4,30.12,NNW,343,1.0,-999.0,62,-99.99,,,0.00,0.0,cwc,2013-03-10 13:35:00,
2013-03-10 07:40:00,28.1,14.8,30.12,NNW,342,0.0,-999.0,63,-99.99,,,0.00,0.0,cwc,2013-03-10 13:40:00,
2013-03-10 07:45:00,28.2,14.9,30.12,NNE,16,6.0,-999.0,63,-99.99,,,0.00,0.0,cwc,2013-03-10 13:45:00,
2013-03-10 07:50:00,28.2,14.5,30.13,NNE,18,7.0,-999.0,62,-99.99,,,0.00,0.0,cwc,2013-03-10 13:50:00,
2013-03-10 07:55:00,28.4,14.0,30.13,NNE,32,7.0,-999.0,60,-99.99,,,0.00,0.0,cwc,2013-03-10 13:55:00,
2013-03-10 08:00:00,28.4,14.7,30.13,NNE,16,9.0,-999.0,62,-99.99,,,0.00,0.0,cwc,2013-03-10 14:00:00,
2013-03-10 08:05:00,28.5,15.5,30.14,North,354,7.0,-999.0,64,-99.99,,,0.00,0.0,cwc,2013-03-10 14:05:00,
2013-03-10 08:10:00,28.5,15.2,30.14,NNE,16,7.0,-999.0,63,-99.99,,,0.00,0.0,cwc,2013-03-10 14:10:00,
2013-03-10 08:15:00,28.5,14.5,30.14,NNE,21,2.0,-999.0,61,-99.99,,,0.00,0.0,cwc,2013-03-10 14:15:00,
2013-03-10 08:20:00,28.7,14.7,30.14,NNE,25,6.0,-999.0,61,-99.99,,,0.00,0.0,cwc,2013-03-10 14:20:00,
2013-03-10 08:25:00,28.5,14.8,30.14,NNE,14,4.0,-999.0,62,-99.99,,,0.00,0.0,cwc,2013-03-10 14:25:00,
2013-03-10 08:30:00,28.8,14.8,30.14,NNE,14,4.0,-999.0,61,-99.99,,,0.00,0.0,cwc,2013-03-10 14:30:00,
2013-03-10 08:35:00,28.7,15.0,30.15,NNE,30,4.0,-999.0,62,-99.99,,,0.00,0.0,cwc,2013-03-10 14:35:00,
2013-03-10 08:40:00,28.8,15.5,30.15,NNE,23,4.0,-999.0,63,-99.99,,,0.00,0.0,cwc,2013-03-10 14:40:00,
2013-03-10 08:45:00,29.0,15.3,30.15,NNE,23,2.0,-999.0,62,-99.99,,,0.00,0.0,cwc,2013-03-10 14:45:00,
2013-03-10 08:55:00,29.0,15.3,30.15,NNE,23,0.0,-999.0,62,-99.99,,,0.00,0.0,cwc,2013-03-10 14:55:00,
2013-03-10 09:00:00,29.7,16.0,30.15,NNE,23,0.0,-999.0,62,-99.99,,,0.00,0.0,cwc,2013-03-10 15:00:00,
2013-03-10 09:05:00,30.0,16.0,30.16,NNE,23,0.0,-999.0,61,-99.99,,,0.00,0.0,cwc,2013-03-10 15:05:00,
2013-03-10 09:10:00,30.4,16.0,30.16,NNE,23,0.0,-999.0,60,-99.99,,,0.00,0.0,cwc,2013-03-10 15:10:00,
2013-03-10 09:15:00,30.9,16.1,30.16,NNE,23,0.0,-999.0,59,-99.99,,,0.00,0.0,cwc,2013-03-10 15:15:00,
2013-03-10 09:20:00,31.3,16.5,30.16,NNE,23,0.0,-999.0,59,-99.99,,,0.00,0.0,cwc,2013-03-10 15:20:00,
2013-03-10 09:30:00,32.2,16.4,30.16,NNE,23,0.0,-999.0,56,-99.99,,,0.00,0.0,cwc,2013-03-10 15:30:00,
2013-03-10 09:35:00,32.5,16.3,30.14,NNE,24,6.0,-999.0,55,-99.99,,,0.00,0.0,cwc,2013-03-10 15:35:00,
2013-03-10 09:40:00,32.8,16.2,30.14,NNE,24,0.0,-999.0,54,-99.99,,,0.00,0.0,cwc,2013-03-10 15:40:00,
2013-03-10 09:45:00,33.7,20.0,30.14,NE,35,0.0,-999.0,62,-99.99,,,0.00,0.0,cwc,2013-03-10 15:45:00,
2013-03-10 09:50:00,34.7,21.0,30.13,NE,35,1.0,-999.0,62,-99.99,,,0.00,0.0,cwc,2013-03-10 15:50:00,
2013-03-10 09:55:00,34.4,18.6,30.13,South,179,0.0,-999.0,56,-99.99,,,0.00,0.0,cwc,2013-03-10 15:55:00,
2013-03-10 10:00:00,34.6,18.0,30.13,SE,143,6.0,-999.0,54,-99.99,,,0.00,0.0,cwc,2013-03-10 16:00:00,
2013-03-10 10:05:00,34.7,17.1,30.12,SE,143,0.0,-999.0,51,-99.99,,,0.00,0.0,cwc,2013-03-10 16:05:00,
2013-03-10 10:10:00,35.2,16.8,30.12,ESE,104,0.0,-999.0,49,-99.99,,,0.00,0.0,cwc,2013-03-10 16:10:00,
2013-03-10 10:15:00,35.5,17.1,30.12,ENE,72,4.0,-999.0,49,-99.99,,,0.01,0.0,cwc,2013-03-10 16:15:00,
2013-03-10 10:20:00,36.2,17.1,30.13,East,99,1.0,-999.0,47,-99.99,,,0.01,0.0,cwc,2013-03-10 16:20:00,
2013-03-10 10:25:00,35.9,16.5,30.13,ESE,104,2.0,-999.0,46,-99.99,,,0.01,0.0,cwc,2013-03-10 16:25:00,
2013-03-10 10:30:00,34.6,15.9,30.13,NE,41,6.0,-999.0,48,-99.99,,,0.01,0.0,cwc,2013-03-10 16:30:00,
2013-03-10 10:35:00,34.7,16.3,30.14,ENE,68,2.0,-999.0,49,-99.99,,,0.01,0.0,cwc,2013-03-10 16:35:00,
2013-03-10 10:40:00,34.7,15.6,30.14,NE,47,6.0,-999.0,47,-99.99,,,0.01,0.0,cwc,2013-03-10 16:40:00,
2013-03-10 10:45:00,34.7,15.3,30.14,NE,35,6.0,-999.0,46,-99.99,,,0.01,0.0,cwc,2013-03-10 16:45:00,
2013-03-10 10:50:00,35.6,16.9,30.15,ENE,72,4.0,-999.0,48,-99.99,,,0.01,0.0,cwc,2013-03-10 16:50:00,
2013-03-10 10:55:00,35.0,15.9,30.15,NE,34,6.0,-999.0,47,-99.99,,,0.01,0.0,cwc,2013-03-10 16:55:00,
2013-03-10 11:00:00,34.7,15.6,30.15,East,100,6.0,-999.0,47,-99.99,,,0.01,0.0,cwc,2013-03-10 17:00:00,
2013-03-10 11:05:00,34.3,15.2,30.15,NE,37,7.0,-999.0,47,-99.99,,,0.01,0.0,cwc,2013-03-10 17:05:00,
2013-03-10 11:10:00,35.0,15.6,30.15,North,6,2.0,-999.0,46,-99.99,,,0.01,0.0,cwc,2013-03-10 17:10:00,
2013-03-10 11:15:00,35.5,15.3,30.15,ENE,72,0.0,-999.0,44,-99.99,,,0.01,0.0,cwc,2013-03-10 17:15:00,
2013-03-10 11:20:00,36.5,16.3,30.14,ENE,75,6.0,-999.0,44,-99.99,,,0.01,0.0,cwc,2013-03-10 17:20:00,
2013-03-10 11:25:00,37.2,16.3,30.14,East,89,2.0,-999.0,42,-99.99,,,0.01,0.0,cwc,2013-03-10 17:25:00,
2013-03-10 11:30:00,37.6,16.7,30.14,NE,38,6.0,-999.0,42,-99.99,,,0.01,0.0,cwc,2013-03-10 17:30:00,
2013-03-10 11:35:00,37.8,16.6,30.12,ENE,73,7.0,-999.0,41,-99.99,,,0.01,0.0,cwc,2013-03-10 17:35:00,
2013-03-10 11:40:00,37.9,16.3,30.12,NE,55,10.0,-999.0,40,-99.99,,,0.01,0.0,cwc,2013-03-10 17:40:00,
2013-03-10 11:45:00,37.0,15.8,30.12,NNE,25,7.0,-999.0,41,-99.99,,,0.01,0.0,cwc,2013-03-10 17:45:00,
2013-03-10 11:50:00,36.5,15.3,30.13,ENE,59,6.0,-999.0,41,-99.99,,,0.01,0.0,cwc,2013-03-10 17:50:00,
2013-03-10 11:55:00,36.2,15.3,30.13,NE,49,4.0,-999.0,42,-99.99,,,0.01,0.0,cwc,2013-03-10 17:55:00,
2013-03-10 12:00:00,36.8,15.2,30.13,ENE,76,8.0,-999.0,40,-99.99,,,0.01,0.0,cwc,2013-03-10 18:00:00,
2013-03-10 12:05:00,37.3,17.1,30.12,ENE,69,7.0,-999.0,44,-99.99,,,0.01,0.0,cwc,2013-03-10 18:05:00,
2013-03-10 12:10:00,37.2,16.3,30.12,NE,51,6.0,-999.0,42,-99.99,,,0.01,0.0,cwc,2013-03-10 18:10:00,
2013-03-10 12:15:00,37.3,16.1,30.12,NE,54,10.0,-999.0,41,-99.99,,,0.01,0.0,cwc,2013-03-10 18:15:00,
2013-03-10 12:20:00,37.6,16.7,30.11,East,80,7.0,-999.0,42,-99.99,,,0.01,0.0,cwc,2013-03-10 18:20:00,
2013-03-10 12:25:00,37.8,16.2,30.11,ENE,72,0.0,-999.0,40,-99.99,,,0.01,0.0,cwc,2013-03-10 18:25:00,
2013-03-10 12:30:00,37.6,16.7,30.11,East,82,6.0,-999.0,42,-99.99,,,0.01,0.0,cwc,2013-03-10 18:30:00,
2013-03-10 12:35:00,38.0,16.8,30.10,ESE,109,6.0,-999.0,41,-99.99,,,0.01,0.0,cwc,2013-03-10 18:35:00,
2013-03-10 12:40:00,38.8,16.5,30.10,East,86,2.0,-999.0,38,-99.99,,,0.01,0.0,cwc,2013-03-10 18:40:00,
2013-03-10 12:45:00,38.6,16.3,30.10,NE,56,2.0,-999.0,38,-99.99,,,0.01,0.0,cwc,2013-03-10 18:45:00,
2013-03-10 12:50:00,40.5,18.5,30.08,NE,48,7.0,-999.0,39,-99.99,,,0.01,0.0,cwc,2013-03-10 18:50:00,
2013-03-10 12:55:00,39.5,17.9,30.08,NNE,27,9.0,-999.0,40,-99.99,,,0.01,0.0,cwc,2013-03-10 18:55:00,
2013-03-10 13:00:00,38.3,16.7,30.08,NNE,13,14.0,-999.0,40,-99.99,,,0.01,0.0,cwc,2013-03-10 19:00:00,
2013-03-10 13:05:00,38.9,18.0,30.09,North,0,4.0,-999.0,42,-99.99,,,0.01,0.0,cwc,2013-03-10 19:05:00,
2013-03-10 13:10:00,38.8,17.2,30.09,North,350,2.0,-999.0,40,-99.99,,,0.01,0.0,cwc,2013-03-10 19:10:00,
2013-03-10 13:15:00,40.8,18.8,30.09,North,359,0.0,-999.0,39,-99.99,,,0.01,0.0,cwc,2013-03-10 19:15:00,
2013-03-10 13:20:00,38.6,16.3,30.08,NNE,16,4.0,-999.0,38,-99.99,,,0.01,0.0,cwc,2013-03-10 19:20:00,
2013-03-10 13:25:00,40.1,18.9,30.08,North,7,0.0,-999.0,41,-99.99,,,0.01,0.0,cwc,2013-03-10 19:25:00,
2013-03-10 13:30:00,40.3,18.0,30.08,NNE,21,0.0,-999.0,38,-99.99,,,0.01,0.0,cwc,2013-03-10 19:30:00,
2013-03-10 13:35:00,41.6,19.6,30.06,NE,40,0.0,-999.0,39,-99.99,,,0.01,0.0,cwc,2013-03-10 19:35:00,
2013-03-10 13:40:00,41.8,18.0,30.06,NE,48,4.0,-999.0,34,-99.99,,,0.01,0.0,cwc,2013-03-10 19:40:00,
2013-03-10 13:45:00,40.6,17.6,30.06,NE,40,13.0,-999.0,36,-99.99,,,0.01,0.0,cwc,2013-03-10 19:45:00,
2013-03-10 13:50:00,39.8,16.8,30.08,NE,35,9.0,-999.0,36,-99.99,,,0.01,0.0,cwc,2013-03-10 19:50:00,
2013-03-10 13:55:00,40.8,17.4,30.08,NE,52,0.0,-999.0,35,-99.99,,,0.01,0.0,cwc,2013-03-10 19:55:00,
2013-03-10 14:00:00,43.3,19.2,30.08,East,86,0.0,-999.0,33,-99.99,,,0.01,0.0,cwc,2013-03-10 20:00:00,
2013-03-10 14:05:00,42.8,19.4,30.05,East,82,6.0,-999.0,35,-99.99,,,0.01,0.0,cwc,2013-03-10 20:05:00,
2013-03-10 14:10:00,41.5,18.1,30.05,NE,44,11.0,-999.0,35,-99.99,,,0.01,0.0,cwc,2013-03-10 20:10:00,
2013-03-10 14:15:00,39.8,16.8,30.05,ESE,119,8.0,-999.0,36,-99.99,,,0.01,0.0,cwc,2013-03-10 20:15:00,
2013-03-10 14:20:00,41.2,17.4,30.03,ENE,58,0.0,-999.0,34,-99.99,,,0.01,0.0,cwc,2013-03-10 20:20:00,
2013-03-10 14:25:00,40.5,17.5,30.03,NE,47,4.0,-999.0,36,-99.99,,,0.01,0.0,cwc,2013-03-10 20:25:00,
2013-03-10 14:30:00,42.6,18.5,30.03,ENE,73,0.0,-999.0,33,-99.99,,,0.01,0.0,cwc,2013-03-10 20:30:00,
2013-03-10 14:35:00,43.2,18.0,30.00,South,172,6.0,-999.0,30,-99.99,,,0.01,0.0,cwc,2013-03-10 20:35:00,
2013-03-10 14:45:00,44.9,20.1,30.00,ENE,66,6.0,-999.0,31,-99.99,,,0.01,0.0,cwc,2013-03-10 20:45:00,
2013-03-10 14:50:00,42.5,19.1,29.98,NE,52,8.0,-999.0,35,-99.99,,,0.01,0.0,cwc,2013-03-10 20:50:00,
2013-03-10 14:55:00,42.6,19.6,29.98,NE,42,6.0,-999.0,36,-99.99,,,0.01,0.0,cwc,2013-03-10 20:55:00,
2013-03-10 15:00:00,44.1,20.3,29.98,East,100,2.0,-999.0,34,-99.99,,,0.01,0.0,cwc,2013-03-10 21:00:00,
2013-03-10 15:05:00,45.8,21.7,30.00,North,1,2.0,-999.0,33,-99.99,,,0.01,0.0,cwc,2013-03-10 21:05:00,
2013-03-10 15:10:00,46.1,21.6,30.00,West,267,4.0,-999.0,32,-99.99,,,0.01,0.0,cwc,2013-03-10 21:10:00,
2013-03-10 15:15:00,44.9,20.4,30.00,NNE,18,7.0,-999.0,32,-99.99,,,0.01,0.0,cwc,2013-03-10 21:15:00,
2013-03-10 15:20:00,43.9,19.1,30.04,NNE,17,8.0,-999.0,31,-99.99,,,0.01,0.0,cwc,2013-03-10 21:20:00,
2013-03-10 15:25:00,43.1,19.3,30.04,NE,49,6.0,-999.0,34,-99.99,,,0.01,0.0,cwc,2013-03-10 21:25:00,
2013-03-10 15:30:00,43.8,20.4,30.04,NNE,30,0.0,-999.0,35,-99.99,,,0.01,0.0,cwc,2013-03-10 21:30:00,
2013-03-10 15:35:00,43.9,20.5,30.06,North,354,4.0,-999.0,35,-99.99,,,0.01,0.0,cwc,2013-03-10 21:35:00,
2013-03-10 15:40:00,44.5,20.7,30.06,NE,45,2.0,-999.0,34,-99.99,,,0.01,0.0,cwc,2013-03-10 21:40:00,
2013-03-10 15:45:00,43.5,19.4,30.06,NE,38,6.0,-999.0,33,-99.99,,,0.01,0.0,cwc,2013-03-10 21:45:00,
2013-03-10 15:50:00,43.2,19.1,30.05,NNE,31,7.0,-999.0,33,-99.99,,,0.01,0.0,cwc,2013-03-10 21:50:00,
2013-03-10 15:55:00,44.1,19.6,30.05,NE,34,1.0,-999.0,32,-99.99,,,0.01,0.0,cwc,2013-03-10 21:55:00,
2013-03-10 16:00:00,43.2,19.4,30.05,NE,42,8.0,-999.0,34,-99.99,,,0.01,0.0,cwc,2013-03-10 22:00:00,
2013-03-10 16:05:00,43.8,19.0,30.06,North,354,4.0,-999.0,31,-99.99,,,0.01,0.0,cwc,2013-03-10 22:05:00,
2013-03-10 16:10:00,44.9,20.4,30.06,North,349,0.0,-999.0,32,-99.99,,,0.01,0.0,cwc,2013-03-10 22:10:00,
2013-03-10 16:15:00,45.5,19.9,30.06,NW,326,0.0,-999.0,29,-99.99,,,0.01,0.0,cwc,2013-03-10 22:15:00,
2013-03-10 16:20:00,45.8,19.5,30.03,NNE,18,0.0,-999.0,27,-99.99,,,0.01,0.0,cwc,2013-03-10 22:20:00,
2013-03-10 16:25:00,44.6,18.3,30.03,NNE,30,8.0,-999.0,27,-99.99,,,0.01,0.0,cwc,2013-03-10 22:25:00,
2013-03-10 16:30:00,44.1,18.5,30.03,NE,52,0.0,-999.0,29,-99.99,,,0.01,0.0,cwc,2013-03-10 22:30:00,
2013-03-10 16:35:00,45.8,19.9,30.02,NNE,30,0.0,-999.0,28,-99.99,,,0.01,0.0,cwc,2013-03-10 22:35:00,
2013-03-10 16:40:00,46.0,19.7,30.02,North,0,1.0,-999.0,27,-99.99,,,0.01,0.0,cwc,2013-03-10 22:40:00,
2013-03-10 16:45:00,47.4,21.1,30.02,North,0,0.0,-999.0,27,-99.99,,,0.01,0.0,cwc,2013-03-10 22:45:00,
2013-03-10 16:50:00,46.8,19.8,30.00,North,0,0.0,-999.0,25,-99.99,,,0.01,0.0,cwc,2013-03-10 22:50:00,
2013-03-10 16:55:00,47.4,20.4,30.00,North,4,0.0,-999.0,25,-99.99,,,0.01,0.0,cwc,2013-03-10 22:55:00,
2013-03-10 17:00:00,46.0,19.0,30.00,NNE,30,0.0,-999.0,25,-99.99,,,0.01,0.0,cwc,2013-03-10 23:00:00,
2013-03-10 17:05:00,44.8,18.9,30.01,NNE,25,6.0,-999.0,28,-99.99,,,0.01,0.0,cwc,2013-03-10 23:05:00,
2013-03-10 17:10:00,43.9,18.0,30.01,NNE,30,1.0,-999.0,28,-99.99,,,0.01,0.0,cwc,2013-03-10 23:10:00,
2013-03-10 17:15:00,44.8,18.9,30.01,NNE,30,0.0,-999.0,28,-99.99,,,0.01,0.0,cwc,2013-03-10 23:15:00,
2013-03-10 17:20:00,44.5,18.2,30.05,ENE,61,2.0,-999.0,27,-99.99,,,0.01,0.0,cwc,2013-03-10 23:20:00,
2013-03-10 17:25:00,44.2,18.3,30.05,ENE,66,6.0,-999.0,28,-99.99,,,0.01,0.0,cwc,2013-03-10 23:25:00,
2013-03-10 17:30:00,44.1,18.2,30.05,ENE,68,1.0,-999.0,28,-99.99,,,0.01,0.0,cwc,2013-03-10 23:30:00,
2013-03-10 17:35:00,44.2,17.9,30.05,ENE,66,6.0,-999.0,27,-99.99,,,0.01,0.0,cwc,2013-03-10 23:35:00,
2013-03-10 17:40:00,44.1,18.2,30.05,ENE,66,0.0,-999.0,28,-99.99,,,0.01,0.0,cwc,2013-03-10 23:40:00,
2013-03-10 17:45:00,43.9,18.0,30.05,ENE,66,0.0,-999.0,28,-99.99,,,0.01,0.0,cwc,2013-03-10 23:45:00,
2013-03-10 17:50:00,44.1,17.8,30.04,ENE,66,0.0,-999.0,27,-99.99,,,0.01,0.0,cwc,2013-03-10 23:50:00,
2013-03-10 17:55:00,43.9,18.3,30.04,ENE,66,2.0,-999.0,29,-99.99,,,0.01,0.0,cwc,2013-03-10 23:55:00,
2013-03-10 18:00:00,43.9,18.0,30.04,ENE,66,1.0,-999.0,28,-99.99,,,0.01,0.0,cwc,2013-03-11 00:00:00,
2013-03-10 18:05:00,43.9,17.6,30.05,ENE,76,1.0,-999.0,27,-99.99,,,0.01,0.0,cwc,2013-03-11 00:05:00,
2013-03-10 18:10:00,43.6,17.7,30.05,ENE,58,2.0,-999.0,28,-99.99,,,0.01,0.0,cwc,2013-03-11 00:10:00,
2013-03-10 18:15:00,43.5,17.6,30.05,ENE,69,0.0,-999.0,28,-99.99,,,0.01,0.0,cwc,2013-03-11 00:15:00,
2013-03-10 18:20:00,43.5,17.2,30.07,East,79,0.0,-999.0,27,-99.99,,,0.01,0.0,cwc,2013-03-11 00:20:00,
2013-03-10 18:25:00,43.3,17.4,30.07,East,79,0.0,-999.0,28,-99.99,,,0.01,0.0,cwc,2013-03-11 00:25:00,
2013-03-10 18:30:00,43.1,17.2,30.07,East,82,0.0,-999.0,28,-99.99,,,0.01,0.0,cwc,2013-03-11 00:30:00,
2013-03-10 18:35:00,42.9,17.0,30.07,East,82,1.0,-999.0,28,-99.99,,,0.01,0.0,cwc,2013-03-11 00:35:00,
2013-03-10 18:40:00,42.8,16.9,30.07,NE,49,1.0,-999.0,28,-99.99,,,0.01,0.0,cwc,2013-03-11 00:40:00,
2013-03-10 18:45:00,42.6,17.4,30.07,NE,49,0.0,-999.0,30,-99.99,,,0.01,0.0,cwc,2013-03-11 00:45:00,
2013-03-10 18:50:00,42.5,17.3,30.07,NE,49,0.0,-999.0,30,-99.99,,,0.01,0.0,cwc,2013-03-11 00:50:00,
2013-03-10 18:55:00,42.3,17.5,30.07,NE,49,0.0,-999.0,31,-99.99,,,0.01,0.0,cwc,2013-03-11 00:55:00,
2013-03-10 19:00:00,42.1,18.0,30.07,NE,49,0.0,-999.0,33,-99.99,,,0.01,0.0,cwc,2013-03-11 01:00:00,
2013-03-10 19:05:00,41.9,17.8,30.09,NE,49,0.0,-999.0,33,-99.99,,,0.01,0.0,cwc,2013-03-11 01:05:00,
2013-03-10 19:10:00,41.5,17.7,30.09,NE,49,1.0,-999.0,34,-99.99,,,0.01,0.0,cwc,2013-03-11 01:10:00,
2013-03-10 19:15:00,41.3,17.5,30.09,NE,49,0.0,-999.0,34,-99.99,,,0.01,0.0,cwc,2013-03-11 01:15:00,
2013-03-10 19:20:00,40.9,17.9,30.11,NE,49,0.0,-999.0,36,-99.99,,,0.01,0.0,cwc,2013-03-11 01:20:00,
2013-03-10 19:25:00,41.1,22.0,30.11,NE,49,0.0,-999.0,47,-99.99,,,0.01,0.0,cwc,2013-03-11 01:25:00,
2013-03-10 19:30:00,40.3,17.3,30.11,NE,49,0.0,-999.0,36,-99.99,,,0.01,0.0,cwc,2013-03-11 01:30:00,
2013-03-10 19:35:00,40.1,18.9,30.11,NE,49,0.0,-999.0,41,-99.99,,,0.01,0.0,cwc,2013-03-11 01:35:00,
2013-03-10 19:40:00,39.8,21.4,30.11,NE,51,2.0,-999.0,49,-99.99,,,0.01,0.0,cwc,2013-03-11 01:40:00,
2013-03-10 19:45:00,39.3,21.7,30.11,NE,51,0.0,-999.0,51,-99.99,,,0.01,0.0,cwc,2013-03-11 01:45:00,
2013-03-10 19:50:00,38.5,19.1,30.13,NE,51,0.0,-999.0,46,-99.99,,,0.01,0.0,cwc,2013-03-11 01:50:00,
2013-03-10 19:55:00,39.8,26.1,30.13,NE,51,0.0,-999.0,62,-99.99,,,0.01,0.0,cwc,2013-03-11 01:55:00,
2013-03-10 20:00:00,39.8,30.1,30.13,NE,51,0.0,-999.0,73,-99.99,,,0.01,0.0,cwc,2013-03-11 02:00:00,
2013-03-10 20:05:00,38.3,22.8,30.13,NE,51,0.0,-999.0,57,-99.99,,,0.01,0.0,cwc,2013-03-11 02:05:00,
2013-03-10 20:10:00,38.2,22.0,30.13,NE,51,0.0,-999.0,55,-99.99,,,0.01,0.0,cwc,2013-03-11 02:10:00,
2013-03-10 20:20:00,36.8,18.8,30.15,NE,51,0.0,-999.0,50,-99.99,,,0.01,0.0,cwc,2013-03-11 02:20:00,
2013-03-10 20:25:00,36.3,18.3,30.15,NE,51,0.0,-999.0,50,-99.99,,,0.01,0.0,cwc,2013-03-11 02:25:00,
2013-03-10 20:30:00,35.8,18.2,30.15,NE,51,4.0,-999.0,51,-99.99,,,0.01,0.0,cwc,2013-03-11 02:30:00,
2013-03-10 20:35:00,35.6,18.7,30.15,NE,51,0.0,-999.0,53,-99.99,,,0.01,0.0,cwc,2013-03-11 02:35:00,
2013-03-10 20:40:00,35.8,20.7,30.15,NE,51,2.0,-999.0,58,-99.99,,,0.01,0.0,cwc,2013-03-11 02:40:00,
2013-03-10 20:45:00,35.3,19.5,30.15,NE,51,0.0,-999.0,56,-99.99,,,0.01,0.0,cwc,2013-03-11 02:45:00,
2013-03-10 20:50:00,34.7,19.2,30.18,NE,51,0.0,-999.0,57,-99.99,,,0.01,0.0,cwc,2013-03-11 02:50:00,
2013-03-10 20:55:00,39.6,25.2,30.18,NE,51,0.0,-999.0,60,-99.99,,,0.01,0.0,cwc,2013-03-11 02:55:00,
2013-03-10 21:00:00,36.9,14.2,30.18,NE,51,0.0,-999.0,37,-99.99,,,0.01,0.0,cwc,2013-03-11 03:00:00,
2013-03-10 21:05:00,35.5,23.6,30.17,NE,51,0.0,-999.0,67,-99.99,,,0.01,0.0,cwc,2013-03-11 03:05:00,
2013-03-10 21:15:00,34.0,19.2,30.17,NE,51,0.0,-999.0,59,-99.99,,,0.01,0.0,cwc,2013-03-11 03:15:00,
2013-03-10 21:20:00,34.0,20.0,30.16,NE,51,0.0,-999.0,61,-99.99,,,0.01,0.0,cwc,2013-03-11 03:20:00,
2013-03-10 21:25:00,34.1,21.1,30.16,NE,51,0.0,-999.0,64,-99.99,,,0.01,0.0,cwc,2013-03-11 03:25:00,
2013-03-10 21:30:00,33.5,20.9,30.16,NE,51,2.0,-999.0,65,-99.99,,,0.01,0.0,cwc,2013-03-11 03:30:00,
2013-03-10 21:35:00,33.1,20.5,30.17,NE,51,1.0,-999.0,65,-99.99,,,0.01,0.0,cwc,2013-03-11 03:35:00,
2013-03-10 21:40:00,33.4,22.2,30.17,NE,51,0.0,-999.0,69,-99.99,,,0.01,0.0,cwc,2013-03-11 03:40:00,
2013-03-10 21:45:00,33.7,24.0,30.17,NE,51,0.0,-999.0,73,-99.99,,,0.01,0.0,cwc,2013-03-11 03:45:00,
2013-03-10 21:50:00,34.4,24.7,30.17,NE,51,0.0,-999.0,73,-99.99,,,0.01,0.0,cwc,2013-03-11 03:50:00,
2013-03-10 21:55:00,32.8,21.3,30.17,NE,51,0.0,-999.0,68,-99.99,,,0.01,0.0,cwc,2013-03-11 03:55:00,
2013-03-10 22:00:00,32.8,21.3,30.17,NE,51,0.0,-999.0,68,-99.99,,,0.01,0.0,cwc,2013-03-11 04:00:00,
2013-03-10 22:05:00,36.9,25.4,30.18,NE,51,0.0,-999.0,68,-99.99,,,0.01,0.0,cwc,2013-03-11 04:05:00,
2013-03-10 22:10:00,34.6,23.8,30.18,NE,51,0.0,-999.0,70,-99.99,,,0.01,0.0,cwc,2013-03-11 04:10:00,
2013-03-10 22:15:00,33.2,24.2,30.18,NE,51,0.0,-999.0,75,-99.99,,,0.01,0.0,cwc,2013-03-11 04:15:00,
2013-03-10 22:20:00,32.9,31.1,30.18,NE,51,0.0,-999.0,95,-99.99,,,0.01,0.0,cwc,2013-03-11 04:20:00,
2013-03-10 22:25:00,32.8,30.3,30.18,NE,51,0.0,-999.0,93,-99.99,,,0.01,0.0,cwc,2013-03-11 04:25:00,
2013-03-10 22:30:00,32.9,32.2,30.18,NE,51,0.0,-999.0,98,-99.99,,,0.01,0.0,cwc,2013-03-11 04:30:00,
2013-03-10 22:35:00,35.3,34.6,30.19,NE,51,0.0,-999.0,98,-99.99,,,0.01,0.0,cwc,2013-03-11 04:35:00,
2013-03-10 22:40:00,31.9,30.8,30.19,NE,51,0.0,-999.0,97,-99.99,,,0.01,0.0,cwc,2013-03-11 04:40:00,
2013-03-10 22:45:00,31.5,30.1,30.19,NE,51,0.0,-999.0,96,-99.99,,,0.01,0.0,cwc,2013-03-11 04:45:00,
2013-03-10 22:50:00,37.9,36.5,30.20,NE,51,0.0,-999.0,96,-99.99,,,0.01,0.0,cwc,2013-03-11 04:50:00,
2013-03-10 22:55:00,34.9,34.9,30.20,NE,51,0.0,-999.0,100,-99.99,,,0.01,0.0,cwc,2013-03-11 04:55:00,
2013-03-10 23:00:00,33.5,33.5,30.20,NE,51,0.0,-999.0,100,-99.99,,,0.01,0.0,cwc,2013-03-11 05:00:00,
2013-03-10 23:05:00,36.2,36.2,30.18,NE,51,0.0,-999.0,100,-99.99,,,0.01,0.0,cwc,2013-03-11 05:05:00,
2013-03-10 23:10:00,39.9,21.5,30.18,NE,51,0.0,-999.0,49,-99.99,,,0.01,0.0,cwc,2013-03-11 05:10:00,
2013-03-10 23:15:00,44.3,26.3,30.18,NE,51,0.0,-999.0,50,-99.99,,,0.01,0.0,cwc,2013-03-11 05:15:00,
2013-03-10 23:20:00,38.2,21.3,30.10,NE,51,0.0,-999.0,53,-99.99,,,0.01,0.0,cwc,2013-03-11 05:20:00,
2013-03-10 23:25:00,37.8,20.9,30.10,NE,51,0.0,-999.0,53,-99.99,,,0.01,0.0,cwc,2013-03-11 05:25:00,
2013-03-10 23:30:00,34.6,17.3,30.10,NE,51,0.0,-999.0,52,-99.99,,,0.01,0.0,cwc,2013-03-11 05:30:00,
2013-03-10 23:35:00,38.5,14.4,30.15,NE,51,0.0,-999.0,33,-99.99,,,0.01,0.0,cwc,2013-03-11 05:35:00,
2013-03-10 23:40:00,35.2,17.6,30.15,NE,51,0.0,-999.0,51,-99.99,,,0.01,0.0,cwc,2013-03-11 05:40:00,
2013-03-10 23:45:00,34.1,8.2,30.15,NE,51,0.0,-999.0,28,-99.99,,,0.01,0.0,cwc,2013-03-11 05:45:00,
2013-03-10 23:50:00,34.4,14.2,30.16,NE,51,0.0,-999.0,44,-99.99,,,0.01,0.0,cwc,2013-03-11 05:50:00,
2013-03-10 23:55:00,36.2,19.3,30.16,NE,51,0.0,-999.0,53,-99.99,,,0.01,0.0,cwc,2013-03-11 05:55:00,